Time,TemperatureF,DewpointF,PressureIn,WindDirection,WindDirectionDegrees,WindSpeedMPH,WindSpeedGustMPH,Humidity,HourlyPrecipIn,Conditions,Clouds,dailyrainin,SolarRadiationWatts/m^2,SoftwareType,DateUTC
2013-04-01 00:00:00,47.8,23.7,29.84,SW,235,0.0,-999.0,33,-99.99,,,0.00,0.0,cwc,2013-04-01 06:00:00,
2013-04-01 00:05:00,47.8,23.7,29.84,SW,235,0.0,-999.0,33,-99.99,,,0.00,0.0,cwc,2013-04-01 06:05:00,
2013-04-01 00:10:00,47.5,23.7,29.84,SW,234,2.0,-999.0,34,-99.99,,,0.00,0.0,cwc,2013-04-01 06:10:00,
2013-04-01 00:15:00,47.0,23.2,29.84,SW,235,2.0,-999.0,34,-99.99,,,0.00,0.0,cwc,2013-04-01 06:15:00,
2013-04-01 00:20:00,46.7,23.3,29.84,SW,235,2.0,-999.0,35,-99.99,,,0.00,0.0,cwc,2013-04-01 06:20:00,
2013-04-01 00:25:00,46.4,23.0,29.84,SW,235,3.0,-999.0,35,-99.99,,,0.00,0.0,cwc,2013-04-01 06:25:00,
2013-04-01 00:30:00,46.4,23.0,29.84,SW,235,3.0,-999.0,35,-99.99,,,0.00,0.0,cwc,2013-04-01 06:30:00,
2013-04-01 00:35:00,46.4,23.0,29.85,SW,235,2.0,-999.0,35,-99.99,,,0.00,0.0,cwc,2013-04-01 06:35:00,
2013-04-01 00:40:00,45.9,22.5,29.85,SW,235,3.0,-999.0,35,-99.99,,,0.00,0.0,cwc,2013-04-01 06:40:00,
2013-04-01 00:45:00,45.5,22.1,29.85,SW,234,1.0,-999.0,35,-99.99,,,0.00,0.0,cwc,2013-04-01 06:45:00,
2013-04-01 00:50:00,45.1,22.1,29.85,SW,235,3.0,-999.0,36,-99.99,,,0.00,0.0,cwc,2013-04-01 06:50:00,
2013-04-01 00:55:00,44.5,21.5,29.85,SW,235,1.0,-999.0,36,-99.99,,,0.00,0.0,cwc,2013-04-01 06:55:00,
2013-04-01 01:00:00,44.2,21.2,29.85,SW,235,3.0,-999.0,36,-99.99,,,0.00,0.0,cwc,2013-04-01 07:00:00,
2013-04-01 01:05:00,44.2,21.2,29.85,SW,234,1.0,-999.0,36,-99.99,,,0.00,0.0,cwc,2013-04-01 07:05:00,
2013-04-01 01:10:00,44.0,21.0,29.85,SW,235,4.0,-999.0,36,-99.99,,,0.00,0.0,cwc,2013-04-01 07:10:00,
2013-04-01 01:15:00,43.5,20.8,29.85,SW,235,3.0,-999.0,37,-99.99,,,0.00,0.0,cwc,2013-04-01 07:15:00,
2013-04-01 01:20:00,43.3,20.6,29.85,SW,234,0.0,-999.0,37,-99.99,,,0.00,0.0,cwc,2013-04-01 07:20:00,
2013-04-01 01:25:00,43.1,20.4,29.85,SW,234,1.0,-999.0,37,-99.99,,,0.00,0.0,cwc,2013-04-01 07:25:00,
2013-04-01 01:30:00,42.9,20.6,29.86,SW,235,3.0,-999.0,38,-99.99,,,0.00,0.0,cwc,2013-04-01 07:30:00,
2013-04-01 01:35:00,42.9,20.6,29.86,SW,235,2.0,-999.0,38,-99.99,,,0.00,0.0,cwc,2013-04-01 07:35:00,
2013-04-01 01:40:00,42.5,20.2,29.86,SW,235,1.0,-999.0,38,-99.99,,,0.00,0.0,cwc,2013-04-01 07:40:00,
2013-04-01 01:45:00,42.2,20.2,29.86,SW,235,2.0,-999.0,39,-99.99,,,0.00,0.0,cwc,2013-04-01 07:45:00,
2013-04-01 01:50:00,41.9,19.9,29.86,SW,235,3.0,-999.0,39,-99.99,,,0.00,0.0,cwc,2013-04-01 07:50:00,
2013-04-01 01:55:00,41.7,19.7,29.86,SW,234,0.0,-999.0,39,-99.99,,,0.00,0.0,cwc,2013-04-01 07:55:00,
2013-04-01 02:00:00,41.4,19.8,29.86,SW,234,0.0,-999.0,40,-99.99,,,0.00,0.0,cwc,2013-04-01 08:00:00,
2013-04-01 02:10:00,40.5,19.3,29.86,SW,235,0.0,-999.0,41,-99.99,,,0.00,0.0,cwc,2013-04-01 08:10:00,
2013-04-01 02:25:00,39.9,19.4,29.86,SW,235,5.0,-999.0,43,-99.99,,,0.00,0.0,cwc,2013-04-01 08:25:00,
2013-04-01 02:30:00,40.2,19.3,29.86,SW,235,0.0,-999.0,42,-99.99,,,0.00,0.0,cwc,2013-04-01 08:30:00,
2013-04-01 02:35:00,40.7,19.8,29.86,SW,234,1.0,-999.0,42,-99.99,,,0.00,0.0,cwc,2013-04-01 08:35:00,
2013-04-01 02:45:00,40.8,19.9,29.86,SW,235,0.0,-999.0,42,-99.99,,,0.00,0.0,cwc,2013-04-01 08:45:00,
2013-04-01 02:50:00,40.6,19.7,29.86,SW,235,0.0,-999.0,42,-99.99,,,0.00,0.0,cwc,2013-04-01 08:50:00,
2013-04-01 02:55:00,40.4,19.5,29.86,SW,234,0.0,-999.0,42,-99.99,,,0.00,0.0,cwc,2013-04-01 08:55:00,
2013-04-01 03:00:00,40.2,19.7,29.86,SW,235,4.0,-999.0,43,-99.99,,,0.00,0.0,cwc,2013-04-01 09:00:00,
2013-04-01 03:05:00,40.0,19.5,29.86,SW,235,1.0,-999.0,43,-99.99,,,0.00,0.0,cwc,2013-04-01 09:05:00,
2013-04-01 03:10:00,40.2,19.7,29.86,SW,234,2.0,-999.0,43,-99.99,,,0.00,0.0,cwc,2013-04-01 09:10:00,
2013-04-01 03:15:00,40.5,20.0,29.86,SW,235,1.0,-999.0,43,-99.99,,,0.00,0.0,cwc,2013-04-01 09:15:00,
2013-04-01 03:20:00,40.5,20.0,29.86,SW,235,0.0,-999.0,43,-99.99,,,0.00,0.0,cwc,2013-04-01 09:20:00,
2013-04-01 03:25:00,40.3,19.8,29.86,SW,235,2.0,-999.0,43,-99.99,,,0.00,0.0,cwc,2013-04-01 09:25:00,
2013-04-01 03:30:00,39.8,19.6,29.86,SW,235,3.0,-999.0,44,-99.99,,,0.00,0.0,cwc,2013-04-01 09:30:00,
2013-04-01 03:35:00,39.4,19.2,29.86,SW,234,2.0,-999.0,44,-99.99,,,0.00,0.0,cwc,2013-04-01 09:35:00,
2013-04-01 03:40:00,39.3,19.1,29.86,SW,235,2.0,-999.0,44,-99.99,,,0.00,0.0,cwc,2013-04-01 09:40:00,
2013-04-01 03:45:00,39.3,19.1,29.86,SW,235,0.0,-999.0,44,-99.99,,,0.00,0.0,cwc,2013-04-01 09:45:00,
2013-04-01 03:50:00,39.2,19.0,29.86,SW,235,1.0,-999.0,44,-99.99,,,0.00,0.0,cwc,2013-04-01 09:50:00,
2013-04-01 03:55:00,38.9,18.7,29.86,SW,235,0.0,-999.0,44,-99.99,,,0.00,0.0,cwc,2013-04-01 09:55:00,
2013-04-01 04:00:00,38.7,18.9,29.86,SW,235,0.0,-999.0,45,-99.99,,,0.00,0.0,cwc,2013-04-01 10:00:00,
2013-04-01 04:05:00,38.3,18.1,29.86,SW,235,2.0,-999.0,44,-99.99,,,0.00,0.0,cwc,2013-04-01 10:05:00,
2013-04-01 04:10:00,37.8,18.4,29.86,SW,234,4.0,-999.0,46,-99.99,,,0.00,0.0,cwc,2013-04-01 10:10:00,
2013-04-01 04:15:00,37.8,18.4,29.86,SW,235,3.0,-999.0,46,-99.99,,,0.00,0.0,cwc,2013-04-01 10:15:00,
2013-04-01 04:20:00,38.1,18.7,29.86,SW,235,2.0,-999.0,46,-99.99,,,0.00,0.0,cwc,2013-04-01 10:20:00,
2013-04-01 04:25:00,37.7,18.3,29.86,SW,235,0.0,-999.0,46,-99.99,,,0.00,0.0,cwc,2013-04-01 10:25:00,
2013-04-01 04:30:00,37.3,18.2,29.86,SW,234,0.0,-999.0,47,-99.99,,,0.00,0.0,cwc,2013-04-01 10:30:00,
2013-04-01 04:35:00,37.0,17.9,29.86,SW,235,0.0,-999.0,47,-99.99,,,0.00,0.0,cwc,2013-04-01 10:35:00,
2013-04-01 04:40:00,37.0,17.9,29.86,SW,235,0.0,-999.0,47,-99.99,,,0.00,0.0,cwc,2013-04-01 10:40:00,
2013-04-01 04:45:00,37.5,18.1,29.86,SW,234,0.0,-999.0,46,-99.99,,,0.00,0.0,cwc,2013-04-01 10:45:00,
2013-04-01 04:50:00,38.0,18.6,29.86,SW,234,2.0,-999.0,46,-99.99,,,0.00,0.0,cwc,2013-04-01 10:50:00,
2013-04-01 04:55:00,38.5,18.7,29.86,SW,235,3.0,-999.0,45,-99.99,,,0.00,0.0,cwc,2013-04-01 10:55:00,
2013-04-01 05:00:00,38.6,18.8,29.86,SW,235,3.0,-999.0,45,-99.99,,,0.00,0.0,cwc,2013-04-01 11:00:00,
2013-04-01 05:05:00,38.7,18.9,29.86,SW,234,3.0,-999.0,45,-99.99,,,0.00,0.0,cwc,2013-04-01 11:05:00,
2013-04-01 05:10:00,38.8,19.0,29.87,SW,235,2.0,-999.0,45,-99.99,,,0.00,0.0,cwc,2013-04-01 11:10:00,
2013-04-01 05:15:00,38.6,18.8,29.87,SW,234,3.0,-999.0,45,-99.99,,,0.00,0.0,cwc,2013-04-01 11:15:00,
2013-04-01 05:20:00,38.5,18.7,29.87,SW,234,0.0,-999.0,45,-99.99,,,0.00,0.0,cwc,2013-04-01 11:20:00,
2013-04-01 05:25:00,38.3,18.5,29.87,SW,234,0.0,-999.0,45,-99.99,,,0.00,0.0,cwc,2013-04-01 11:25:00,
2013-04-01 05:30:00,38.0,19.3,29.87,SW,234,0.0,-999.0,48,-99.99,,,0.00,0.0,cwc,2013-04-01 11:30:00,
2013-04-01 05:35:00,37.7,18.3,29.88,SW,235,0.0,-999.0,46,-99.99,,,0.00,0.0,cwc,2013-04-01 11:35:00,
2013-04-01 05:40:00,37.3,17.9,29.88,SW,235,0.0,-999.0,46,-99.99,,,0.00,0.0,cwc,2013-04-01 11:40:00,
2013-04-01 05:45:00,37.0,17.9,29.88,SW,234,1.0,-999.0,47,-99.99,,,0.00,0.0,cwc,2013-04-01 11:45:00,
2013-04-01 05:50:00,36.8,17.7,29.88,SW,235,2.0,-999.0,47,-99.99,,,0.00,0.0,cwc,2013-04-01 11:50:00,
2013-04-01 05:55:00,36.8,17.7,29.88,SW,235,3.0,-999.0,47,-99.99,,,0.00,0.0,cwc,2013-04-01 11:55:00,
2013-04-01 06:00:00,36.8,17.7,29.88,SW,234,0.0,-999.0,47,-99.99,,,0.00,0.0,cwc,2013-04-01 12:00:00,
2013-04-01 06:05:00,36.6,17.9,29.89,SW,234,2.0,-999.0,48,-99.99,,,0.00,0.0,cwc,2013-04-01 12:05:00,
2013-04-01 06:10:00,36.6,17.5,29.89,SW,235,0.0,-999.0,47,-99.99,,,0.00,0.0,cwc,2013-04-01 12:10:00,
2013-04-01 06:15:00,36.5,17.8,29.89,SW,235,0.0,-999.0,48,-99.99,,,0.00,0.0,cwc,2013-04-01 12:15:00,
2013-04-01 06:20:00,36.4,17.7,29.90,SW,234,0.0,-999.0,48,-99.99,,,0.00,0.0,cwc,2013-04-01 12:20:00,
2013-04-01 06:25:00,36.4,17.7,29.90,SW,234,0.0,-999.0,48,-99.99,,,0.00,0.0,cwc,2013-04-01 12:25:00,
2013-04-01 06:30:00,36.4,17.7,29.90,SW,235,0.0,-999.0,48,-99.99,,,0.00,0.0,cwc,2013-04-01 12:30:00,
2013-04-01 06:35:00,36.3,17.6,29.90,SW,234,3.0,-999.0,48,-99.99,,,0.00,0.0,cwc,2013-04-01 12:35:00,
2013-04-01 06:40:00,36.6,17.5,29.90,SW,234,3.0,-999.0,47,-99.99,,,0.00,0.0,cwc,2013-04-01 12:40:00,
2013-04-01 06:45:00,36.8,18.1,29.90,SW,234,3.0,-999.0,48,-99.99,,,0.00,0.0,cwc,2013-04-01 12:45:00,
2013-04-01 06:50:00,36.6,18.2,29.90,SW,236,4.0,-999.0,49,-99.99,,,0.00,0.0,cwc,2013-04-01 12:50:00,
2013-04-01 06:55:00,35.7,17.7,29.90,NW,309,0.0,-999.0,50,-99.99,,,0.00,7.0,cwc,2013-04-01 12:55:00,
2013-04-01 07:00:00,35.0,17.0,29.90,NW,309,0.0,-999.0,50,-99.99,,,0.00,11.0,cwc,2013-04-01 13:00:00,
2013-04-01 07:05:00,34.8,17.5,29.90,NW,309,1.0,-999.0,52,-99.99,,,0.00,14.0,cwc,2013-04-01 13:05:00,
2013-04-01 07:15:00,34.8,17.9,29.90,NW,309,0.0,-999.0,53,-99.99,,,0.00,21.0,cwc,2013-04-01 13:15:00,
2013-04-01 07:20:00,34.8,17.5,29.90,NW,309,0.0,-999.0,52,-99.99,,,0.00,26.0,cwc,2013-04-01 13:20:00,
2013-04-01 07:25:00,34.8,17.5,29.90,NW,309,0.0,-999.0,52,-99.99,,,0.00,40.0,cwc,2013-04-01 13:25:00,
2013-04-01 07:30:00,34.9,17.6,29.90,NW,309,3.0,-999.0,52,-99.99,,,0.00,62.0,cwc,2013-04-01 13:30:00,
2013-04-01 07:35:00,35.2,17.9,29.90,NW,309,1.0,-999.0,52,-99.99,,,0.00,74.0,cwc,2013-04-01 13:35:00,
2013-04-01 07:40:00,35.8,18.5,29.90,NW,309,0.0,-999.0,52,-99.99,,,0.00,93.0,cwc,2013-04-01 13:40:00,
2013-04-01 07:45:00,36.4,19.1,29.90,NW,309,0.0,-999.0,52,-99.99,,,0.00,128.0,cwc,2013-04-01 13:45:00,
2013-04-01 07:50:00,37.1,19.8,29.90,NW,309,0.0,-999.0,52,-99.99,,,0.00,151.0,cwc,2013-04-01 13:50:00,
2013-04-01 07:55:00,38.2,20.6,29.90,NW,309,0.0,-999.0,51,-99.99,,,0.00,174.0,cwc,2013-04-01 13:55:00,
2013-04-01 08:00:00,39.1,21.5,29.90,NW,309,0.0,-999.0,51,-99.99,,,0.00,199.0,cwc,2013-04-01 14:00:00,
2013-04-01 08:05:00,40.0,21.6,29.90,NW,309,0.0,-999.0,49,-99.99,,,0.00,220.0,cwc,2013-04-01 14:05:00,
2013-04-01 08:10:00,41.0,22.3,29.90,NW,309,0.0,-999.0,48,-99.99,,,0.00,243.0,cwc,2013-04-01 14:10:00,
2013-04-01 08:15:00,42.1,22.7,29.89,NW,309,0.0,-999.0,46,-99.99,,,0.00,264.0,cwc,2013-04-01 14:15:00,
2013-04-01 08:25:00,43.8,22.9,29.89,NW,309,0.0,-999.0,42,-99.99,,,0.00,313.0,cwc,2013-04-01 14:25:00,
2013-04-01 08:30:00,44.7,23.5,29.89,NW,309,0.0,-999.0,41,-99.99,,,0.00,323.0,cwc,2013-04-01 14:30:00,
2013-04-01 08:35:00,45.4,23.8,29.89,NW,321,3.0,-999.0,40,-99.99,,,0.00,341.0,cwc,2013-04-01 14:35:00,
2013-04-01 08:40:00,45.8,23.8,29.89,NNW,332,1.0,-999.0,39,-99.99,,,0.00,355.0,cwc,2013-04-01 14:40:00,
2013-04-01 08:45:00,46.3,24.0,29.89,NNW,333,3.0,-999.0,38,-99.99,,,0.00,350.0,cwc,2013-04-01 14:45:00,
2013-04-01 08:50:00,46.8,24.5,29.89,NNW,333,1.0,-999.0,38,-99.99,,,0.00,392.0,cwc,2013-04-01 14:50:00,
2013-04-01 08:55:00,47.4,25.1,29.89,NNW,333,0.0,-999.0,38,-99.99,,,0.00,413.0,cwc,2013-04-01 14:55:00,
2013-04-01 09:00:00,48.1,25.4,29.89,NNW,333,2.0,-999.0,37,-99.99,,,0.00,439.0,cwc,2013-04-01 15:00:00,
2013-04-01 09:05:00,48.8,26.1,29.88,NNW,333,0.0,-999.0,37,-99.99,,,0.00,469.0,cwc,2013-04-01 15:05:00,
2013-04-01 09:10:00,49.9,26.9,29.88,NNW,333,1.0,-999.0,36,-99.99,,,0.00,448.0,cwc,2013-04-01 15:10:00,
2013-04-01 09:15:00,51.0,27.6,29.88,NNW,333,2.0,-999.0,35,-99.99,,,0.00,436.0,cwc,2013-04-01 15:15:00,
2013-04-01 09:20:00,51.7,27.9,29.88,NNW,333,1.0,-999.0,34,-99.99,,,0.00,396.0,cwc,2013-04-01 15:20:00,
2013-04-01 09:25:00,52.1,28.7,29.88,NNW,333,1.0,-999.0,35,-99.99,,,0.00,497.0,cwc,2013-04-01 15:25:00,
2013-04-01 09:30:00,53.0,28.9,29.88,NNW,333,1.0,-999.0,33,-99.99,,,0.00,457.0,cwc,2013-04-01 15:30:00,
2013-04-01 09:40:00,54.5,30.4,29.87,NNW,333,0.0,-999.0,33,-99.99,,,0.00,534.0,cwc,2013-04-01 15:40:00,
2013-04-01 09:45:00,55.4,30.9,29.87,NNW,333,1.0,-999.0,32,-99.99,,,0.00,599.0,cwc,2013-04-01 15:45:00,
2013-04-01 09:50:00,56.3,31.8,29.87,NNW,333,0.0,-999.0,32,-99.99,,,0.00,603.0,cwc,2013-04-01 15:50:00,
2013-04-01 09:55:00,57.4,32.9,29.87,NNW,333,0.0,-999.0,32,-99.99,,,0.00,577.0,cwc,2013-04-01 15:55:00,
2013-04-01 10:00:00,58.5,33.7,29.87,NNW,333,0.0,-999.0,31,-99.99,,,0.00,624.0,cwc,2013-04-01 16:00:00,
2013-04-01 10:05:00,59.5,34.3,29.87,NNW,333,0.0,-999.0,30,-99.99,,,0.00,585.0,cwc,2013-04-01 16:05:00,
2013-04-01 10:10:00,60.4,35.2,29.86,NNW,333,0.0,-999.0,30,-99.99,,,0.00,605.0,cwc,2013-04-01 16:10:00,
2013-04-01 10:15:00,60.7,35.1,29.86,SW,235,0.0,-999.0,29,-99.99,,,0.00,633.0,cwc,2013-04-01 16:15:00,
2013-04-01 10:25:00,61.0,35.1,29.86,WNW,291,1.0,-999.0,28,-99.99,,,0.00,656.0,cwc,2013-04-01 16:25:00,
2013-04-01 10:30:00,61.2,35.3,29.85,North,5,3.0,-999.0,28,-99.99,,,0.00,687.0,cwc,2013-04-01 16:30:00,
2013-04-01 10:35:00,61.0,35.1,29.85,South,171,4.0,-999.0,28,-99.99,,,0.00,654.0,cwc,2013-04-01 16:35:00,
2013-04-01 10:40:00,61.1,35.2,29.85,SSW,196,3.0,-999.0,28,-99.99,,,0.00,696.0,cwc,2013-04-01 16:40:00,
2013-04-01 10:45:00,61.3,35.4,29.85,SW,214,8.0,-999.0,28,-99.99,,,0.00,647.0,cwc,2013-04-01 16:45:00,
2013-04-01 10:50:00,60.9,35.0,29.85,West,261,4.0,-999.0,28,-99.99,,,0.00,666.0,cwc,2013-04-01 16:50:00,
2013-04-01 10:55:00,60.9,35.0,29.84,WSW,243,4.0,-999.0,28,-99.99,,,0.00,738.0,cwc,2013-04-01 16:55:00,
2013-04-01 11:00:00,60.9,35.0,29.84,SSW,205,7.0,-999.0,28,-99.99,,,0.00,747.0,cwc,2013-04-01 17:00:00,
2013-04-01 11:05:00,60.7,34.8,29.84,SW,227,5.0,-999.0,28,-99.99,,,0.00,710.0,cwc,2013-04-01 17:05:00,
2013-04-01 11:10:00,61.1,35.2,29.84,South,178,4.0,-999.0,28,-99.99,,,0.00,756.0,cwc,2013-04-01 17:10:00,
2013-04-01 11:20:00,61.4,35.5,29.83,South,180,7.0,-999.0,28,-99.99,,,0.00,729.0,cwc,2013-04-01 17:20:00,
2013-04-01 11:25:00,61.6,35.3,29.83,SW,217,7.0,-999.0,27,-99.99,,,0.00,661.0,cwc,2013-04-01 17:25:00,
2013-04-01 11:30:00,61.7,35.8,29.83,SW,215,6.0,-999.0,28,-99.99,,,0.00,780.0,cwc,2013-04-01 17:30:00,
2013-04-01 11:35:00,61.9,35.6,29.83,SSW,210,6.0,-999.0,27,-99.99,,,0.00,763.0,cwc,2013-04-01 17:35:00,
2013-04-01 11:40:00,62.2,35.9,29.83,SW,214,4.0,-999.0,27,-99.99,,,0.00,824.0,cwc,2013-04-01 17:40:00,
2013-04-01 11:45:00,62.6,36.3,29.82,SW,215,10.0,-999.0,27,-99.99,,,0.00,867.0,cwc,2013-04-01 17:45:00,
2013-04-01 11:50:00,62.8,36.5,29.82,WNW,290,3.0,-999.0,27,-99.99,,,0.00,812.0,cwc,2013-04-01 17:50:00,
2013-04-01 11:55:00,63.0,36.7,29.82,South,175,3.0,-999.0,27,-99.99,,,0.00,895.0,cwc,2013-04-01 17:55:00,
2013-04-01 12:00:00,62.9,36.6,29.82,West,261,0.0,-999.0,27,-99.99,,,0.00,742.0,cwc,2013-04-01 18:00:00,
2013-04-01 12:10:00,63.2,36.9,29.81,SSW,195,8.0,-999.0,27,-99.99,,,0.00,823.0,cwc,2013-04-01 18:10:00,
2013-04-01 12:15:00,63.7,37.1,29.81,West,259,7.0,-999.0,26,-99.99,,,0.00,939.0,cwc,2013-04-01 18:15:00,
2013-04-01 12:20:00,63.7,37.1,29.81,WSW,241,5.0,-999.0,26,-99.99,,,0.00,803.0,cwc,2013-04-01 18:20:00,
2013-04-01 12:25:00,63.9,36.9,29.81,SW,223,1.0,-999.0,25,-99.99,,,0.00,715.0,cwc,2013-04-01 18:25:00,
2013-04-01 12:30:00,63.9,36.9,29.80,NNE,20,4.0,-999.0,25,-99.99,,,0.00,717.0,cwc,2013-04-01 18:30:00,
2013-04-01 12:35:00,64.1,36.7,29.80,SW,234,5.0,-999.0,24,-99.99,,,0.00,979.0,cwc,2013-04-01 18:35:00,
2013-04-01 12:40:00,64.6,37.2,29.80,East,80,2.0,-999.0,24,-99.99,,,0.00,858.0,cwc,2013-04-01 18:40:00,
2013-04-01 12:45:00,65.1,37.0,29.79,South,172,0.0,-999.0,22,-99.99,,,0.00,888.0,cwc,2013-04-01 18:45:00,
2013-04-01 12:50:00,65.6,37.2,29.79,SW,214,8.0,-999.0,21,-99.99,,,0.00,863.0,cwc,2013-04-01 18:50:00,
2013-04-01 12:55:00,65.6,37.2,29.79,WSW,241,5.0,-999.0,21,-99.99,,,0.00,912.0,cwc,2013-04-01 18:55:00,
2013-04-01 13:00:00,65.7,37.6,29.79,SSW,201,2.0,-999.0,22,-99.99,,,0.00,735.0,cwc,2013-04-01 19:00:00,
2013-04-01 13:05:00,65.7,37.3,29.78,South,188,6.0,-999.0,21,-99.99,,,0.00,886.0,cwc,2013-04-01 19:05:00,
2013-04-01 13:10:00,65.9,37.8,29.78,NNW,337,0.0,-999.0,22,-99.99,,,0.00,900.0,cwc,2013-04-01 19:10:00,
2013-04-01 13:15:00,66.6,38.5,29.77,NNE,17,0.0,-999.0,22,-99.99,,,0.00,868.0,cwc,2013-04-01 19:15:00,
2013-04-01 13:20:00,67.4,39.0,29.77,ENE,63,1.0,-999.0,21,-99.99,,,0.00,895.0,cwc,2013-04-01 19:20:00,
2013-04-01 13:25:00,67.6,39.2,29.77,NNW,337,11.0,-999.0,21,-99.99,,,0.00,861.0,cwc,2013-04-01 19:25:00,
2013-04-01 13:30:00,67.6,39.5,29.77,NE,36,6.0,-999.0,22,-99.99,,,0.00,940.0,cwc,2013-04-01 19:30:00,
2013-04-01 13:35:00,67.8,39.0,29.76,South,178,4.0,-999.0,20,-99.99,,,0.00,904.0,cwc,2013-04-01 19:35:00,
2013-04-01 13:40:00,68.0,39.2,29.76,SSW,193,3.0,-999.0,20,-99.99,,,0.00,872.0,cwc,2013-04-01 19:40:00,
2013-04-01 13:45:00,68.1,39.3,29.76,WSW,249,3.0,-999.0,20,-99.99,,,0.00,842.0,cwc,2013-04-01 19:45:00,
2013-04-01 13:50:00,68.3,39.1,29.76,SW,215,4.0,-999.0,19,-99.99,,,0.00,856.0,cwc,2013-04-01 19:50:00,
2013-04-01 13:55:00,67.9,38.7,29.75,SW,223,8.0,-999.0,19,-99.99,,,0.00,854.0,cwc,2013-04-01 19:55:00,
2013-04-01 14:00:00,67.6,38.4,29.75,SSW,204,1.0,-999.0,19,-99.99,,,0.00,838.0,cwc,2013-04-01 20:00:00,
2013-04-01 14:10:00,68.3,39.1,29.74,NW,304,3.0,-999.0,19,-99.99,,,0.00,772.0,cwc,2013-04-01 20:10:00,
2013-04-01 14:15:00,68.6,39.1,29.74,SW,223,3.0,-999.0,18,-99.99,,,0.00,721.0,cwc,2013-04-01 20:15:00,
2013-04-01 14:20:00,68.7,39.5,29.74,SW,219,2.0,-999.0,19,-99.99,,,0.00,805.0,cwc,2013-04-01 20:20:00,
2013-04-01 14:25:00,68.8,39.3,29.73,SSW,202,5.0,-999.0,18,-99.99,,,0.00,840.0,cwc,2013-04-01 20:25:00,
2013-04-01 14:30:00,68.9,39.4,29.73,SW,214,0.0,-999.0,18,-99.99,,,0.00,793.0,cwc,2013-04-01 20:30:00,
2013-04-01 14:35:00,69.3,39.1,29.73,SSW,198,2.0,-999.0,16,-99.99,,,0.00,872.0,cwc,2013-04-01 20:35:00,
2013-04-01 14:40:00,69.2,39.0,29.72,SW,234,1.0,-999.0,16,-99.99,,,0.00,828.0,cwc,2013-04-01 20:40:00,
2013-04-01 14:45:00,69.3,39.1,29.72,WSW,246,2.0,-999.0,16,-99.99,,,0.00,742.0,cwc,2013-04-01 20:45:00,
2013-04-01 14:50:00,69.0,38.8,29.72,SW,230,3.0,-999.0,16,-99.99,,,0.00,687.0,cwc,2013-04-01 20:50:00,
2013-04-01 14:55:00,69.0,38.4,29.72,SW,231,8.0,-999.0,15,-99.99,,,0.00,817.0,cwc,2013-04-01 20:55:00,
2013-04-01 15:00:00,68.8,38.6,29.72,WSW,245,4.0,-999.0,16,-99.99,,,0.00,680.0,cwc,2013-04-01 21:00:00,
2013-04-01 15:05:00,68.9,38.3,29.71,SW,223,4.0,-999.0,15,-99.99,,,0.00,671.0,cwc,2013-04-01 21:05:00,
2013-04-01 15:10:00,69.0,38.4,29.71,SW,227,3.0,-999.0,15,-99.99,,,0.00,580.0,cwc,2013-04-01 21:10:00,
2013-04-01 15:15:00,69.1,38.5,29.70,WSW,243,4.0,-999.0,15,-99.99,,,0.00,615.0,cwc,2013-04-01 21:15:00,
2013-04-01 15:20:00,69.4,38.8,29.70,SSW,206,15.0,-999.0,15,-99.99,,,0.00,645.0,cwc,2013-04-01 21:20:00,
2013-04-01 15:25:00,69.1,38.9,29.70,West,261,2.0,-999.0,16,-99.99,,,0.00,570.0,cwc,2013-04-01 21:25:00,
2013-04-01 15:30:00,69.1,38.9,29.70,South,188,4.0,-999.0,16,-99.99,,,0.00,693.0,cwc,2013-04-01 21:30:00,
2013-04-01 15:35:00,69.3,39.1,29.69,SSW,207,0.0,-999.0,16,-99.99,,,0.00,700.0,cwc,2013-04-01 21:35:00,
2013-04-01 15:40:00,69.8,39.2,29.69,South,183,9.0,-999.0,15,-99.99,,,0.00,585.0,cwc,2013-04-01 21:40:00,
2013-04-01 15:45:00,70.1,39.1,29.68,SSW,211,11.0,-999.0,14,-99.99,,,0.00,628.0,cwc,2013-04-01 21:45:00,
2013-04-01 15:50:00,69.8,38.8,29.68,SW,220,2.0,-999.0,14,-99.99,,,0.00,489.0,cwc,2013-04-01 21:50:00,
2013-04-01 15:55:00,69.9,38.6,29.69,South,184,7.0,-999.0,13,-99.99,,,0.00,575.0,cwc,2013-04-01 21:55:00,
2013-04-01 16:00:00,70.0,38.3,29.68,SW,215,8.0,-999.0,12,-99.99,,,0.00,480.0,cwc,2013-04-01 22:00:00,
2013-04-01 16:05:00,69.8,38.1,29.68,West,272,12.0,-999.0,12,-99.99,,,0.00,519.0,cwc,2013-04-01 22:05:00,
2013-04-01 16:10:00,69.7,38.0,29.68,SSW,213,11.0,-999.0,12,-99.99,,,0.00,436.0,cwc,2013-04-01 22:10:00,
2013-04-01 16:15:00,69.6,37.9,29.68,SSW,200,7.0,-999.0,12,-99.99,,,0.00,422.0,cwc,2013-04-01 22:15:00,
2013-04-01 16:20:00,69.4,37.7,29.68,SW,215,20.0,-999.0,12,-99.99,,,0.00,417.0,cwc,2013-04-01 22:20:00,
2013-04-01 16:25:00,69.2,37.5,29.67,SW,214,4.0,-999.0,12,-99.99,,,0.00,387.0,cwc,2013-04-01 22:25:00,
2013-04-01 16:30:00,69.4,37.7,29.67,SSW,209,6.0,-999.0,12,-99.99,,,0.00,378.0,cwc,2013-04-01 22:30:00,
2013-04-01 16:35:00,69.6,37.9,29.66,SW,225,12.0,-999.0,12,-99.99,,,0.00,315.0,cwc,2013-04-01 22:35:00,
2013-04-01 16:40:00,69.7,38.4,29.67,West,259,8.0,-999.0,13,-99.99,,,0.00,367.0,cwc,2013-04-01 22:40:00,
2013-04-01 16:45:00,69.7,38.4,29.67,WNW,288,10.0,-999.0,13,-99.99,,,0.00,329.0,cwc,2013-04-01 22:45:00,
2013-04-01 16:50:00,69.1,38.1,29.66,South,176,4.0,-999.0,14,-99.99,,,0.00,260.0,cwc,2013-04-01 22:50:00,
2013-04-01 16:55:00,68.9,37.6,29.66,SW,215,7.0,-999.0,13,-99.99,,,0.00,253.0,cwc,2013-04-01 22:55:00,
2013-04-01 17:00:00,68.8,37.5,29.66,SW,223,13.0,-999.0,13,-99.99,,,0.00,265.0,cwc,2013-04-01 23:00:00,
2013-04-01 17:05:00,68.4,37.4,29.66,SW,222,11.0,-999.0,14,-99.99,,,0.00,262.0,cwc,2013-04-01 23:05:00,
2013-04-01 17:10:00,68.5,37.5,29.66,WSW,237,9.0,-999.0,14,-99.99,,,0.00,283.0,cwc,2013-04-01 23:10:00,
2013-04-01 17:15:00,68.5,37.5,29.66,WSW,242,11.0,-999.0,14,-99.99,,,0.00,295.0,cwc,2013-04-01 23:15:00,
2013-04-01 17:20:00,68.4,37.4,29.66,SW,229,11.0,-999.0,14,-99.99,,,0.00,422.0,cwc,2013-04-01 23:20:00,
2013-04-01 17:25:00,68.5,37.5,29.65,SW,223,7.0,-999.0,14,-99.99,,,0.00,338.0,cwc,2013-04-01 23:25:00,
2013-04-01 17:30:00,68.5,37.5,29.65,SW,232,9.0,-999.0,14,-99.99,,,0.00,234.0,cwc,2013-04-01 23:30:00,
2013-04-01 17:35:00,68.4,37.4,29.65,South,175,5.0,-999.0,14,-99.99,,,0.00,178.0,cwc,2013-04-01 23:35:00,
2013-04-01 17:40:00,68.3,37.3,29.65,SSW,208,14.0,-999.0,14,-99.99,,,0.00,137.0,cwc,2013-04-01 23:40:00,
2013-04-01 17:45:00,68.0,37.0,29.65,SW,234,14.0,-999.0,14,-99.99,,,0.00,176.0,cwc,2013-04-01 23:45:00,
2013-04-01 17:50:00,67.7,36.7,29.66,SW,232,11.0,-999.0,14,-99.99,,,0.00,123.0,cwc,2013-04-01 23:50:00,
2013-04-01 17:55:00,67.4,36.4,29.66,SSW,213,9.0,-999.0,14,-99.99,,,0.00,107.0,cwc,2013-04-01 23:55:00,
2013-04-01 18:00:00,67.2,36.2,29.66,SSW,196,6.0,-999.0,14,-99.99,,,0.00,102.0,cwc,2013-04-02 00:00:00,
2013-04-01 18:05:00,67.1,36.1,29.66,SW,227,4.0,-999.0,14,-99.99,,,0.00,111.0,cwc,2013-04-02 00:05:00,
2013-04-01 18:10:00,67.0,36.0,29.66,SSW,202,4.0,-999.0,14,-99.99,,,0.00,114.0,cwc,2013-04-02 00:10:00,
2013-04-01 18:15:00,67.1,36.1,29.66,SW,234,5.0,-999.0,14,-99.99,,,0.00,104.0,cwc,2013-04-02 00:15:00,
2013-04-01 18:20:00,67.1,36.1,29.66,SSW,205,8.0,-999.0,14,-99.99,,,0.00,91.0,cwc,2013-04-02 00:20:00,
2013-04-01 18:25:00,67.0,36.0,29.66,SW,229,8.0,-999.0,14,-99.99,,,0.00,86.0,cwc,2013-04-02 00:25:00,
2013-04-01 18:30:00,67.0,36.0,29.66,South,191,9.0,-999.0,14,-99.99,,,0.00,79.0,cwc,2013-04-02 00:30:00,
2013-04-01 18:35:00,66.9,35.9,29.66,SW,226,5.0,-999.0,14,-99.99,,,0.00,70.0,cwc,2013-04-02 00:35:00,
2013-04-01 18:40:00,66.8,35.8,29.66,SW,215,7.0,-999.0,14,-99.99,,,0.00,54.0,cwc,2013-04-02 00:40:00,
2013-04-01 18:45:00,66.6,36.0,29.66,SW,229,8.0,-999.0,15,-99.99,,,0.00,44.0,cwc,2013-04-02 00:45:00,
2013-04-01 18:50:00,66.5,35.9,29.66,SW,223,10.0,-999.0,15,-99.99,,,0.00,39.0,cwc,2013-04-02 00:50:00,
2013-04-01 18:55:00,66.4,35.8,29.66,SW,234,9.0,-999.0,15,-99.99,,,0.00,37.0,cwc,2013-04-02 00:55:00,
2013-04-01 19:00:00,66.2,36.0,29.66,SW,227,8.0,-999.0,16,-99.99,,,0.00,32.0,cwc,2013-04-02 01:00:00,
2013-04-01 19:05:00,66.0,35.8,29.66,SSW,209,5.0,-999.0,16,-99.99,,,0.00,25.0,cwc,2013-04-02 01:05:00,
2013-04-01 19:10:00,65.8,35.6,29.66,SSW,196,4.0,-999.0,16,-99.99,,,0.00,16.0,cwc,2013-04-02 01:10:00,
2013-04-01 19:15:00,65.6,35.4,29.66,SW,216,6.0,-999.0,16,-99.99,,,0.00,9.0,cwc,2013-04-02 01:15:00,
2013-04-01 19:25:00,65.2,35.0,29.67,SW,221,3.0,-999.0,16,-99.99,,,0.00,0.0,cwc,2013-04-02 01:25:00,
2013-04-01 19:30:00,64.9,34.7,29.67,SW,221,2.0,-999.0,16,-99.99,,,0.00,0.0,cwc,2013-04-02 01:30:00,
2013-04-01 19:35:00,64.6,34.4,29.67,SW,221,1.0,-999.0,16,-99.99,,,0.00,0.0,cwc,2013-04-02 01:35:00,
2013-04-01 19:40:00,64.3,34.4,29.67,SW,221,0.0,-999.0,17,-99.99,,,0.00,0.0,cwc,2013-04-02 01:40:00,
2013-04-01 19:45:00,63.9,34.0,29.67,SW,221,0.0,-999.0,17,-99.99,,,0.00,0.0,cwc,2013-04-02 01:45:00,
2013-04-01 19:50:00,63.3,33.4,29.68,SW,221,0.0,-999.0,17,-99.99,,,0.00,0.0,cwc,2013-04-02 01:50:00,
2013-04-01 19:55:00,62.5,32.6,29.68,SW,221,2.0,-999.0,17,-99.99,,,0.00,0.0,cwc,2013-04-02 01:55:00,
2013-04-01 20:00:00,61.6,32.1,29.68,SW,221,0.0,-999.0,18,-99.99,,,0.00,0.0,cwc,2013-04-02 02:00:00,
2013-04-01 20:05:00,61.4,31.9,29.68,SW,221,0.0,-999.0,18,-99.99,,,0.00,0.0,cwc,2013-04-02 02:05:00,
2013-04-01 20:10:00,61.2,31.7,29.68,SW,221,0.0,-999.0,18,-99.99,,,0.00,0.0,cwc,2013-04-02 02:10:00,
2013-04-01 20:15:00,60.7,31.2,29.68,SW,221,2.0,-999.0,18,-99.99,,,0.00,0.0,cwc,2013-04-02 02:15:00,
2013-04-01 20:20:00,60.0,30.5,29.68,SW,221,2.0,-999.0,18,-99.99,,,0.00,0.0,cwc,2013-04-02 02:20:00,
2013-04-01 20:25:00,59.2,30.0,29.69,SW,221,1.0,-999.0,19,-99.99,,,0.00,0.0,cwc,2013-04-02 02:25:00,
2013-04-01 20:30:00,58.9,29.7,29.68,SW,221,2.0,-999.0,19,-99.99,,,0.00,0.0,cwc,2013-04-02 02:30:00,
2013-04-01 20:35:00,58.2,29.0,29.69,SW,221,1.0,-999.0,19,-99.99,,,0.00,0.0,cwc,2013-04-02 02:35:00,
2013-04-01 20:40:00,57.4,28.6,29.69,SW,221,4.0,-999.0,20,-99.99,,,0.00,0.0,cwc,2013-04-02 02:40:00,
2013-04-01 20:45:00,56.6,27.8,29.69,SW,221,4.0,-999.0,20,-99.99,,,0.00,0.0,cwc,2013-04-02 02:45:00,
2013-04-01 20:50:00,56.4,27.6,29.69,SW,221,3.0,-999.0,20,-99.99,,,0.00,0.0,cwc,2013-04-02 02:50:00,
2013-04-01 20:55:00,56.5,27.7,29.70,SW,221,2.0,-999.0,20,-99.99,,,0.00,0.0,cwc,2013-04-02 02:55:00,
2013-04-01 21:00:00,56.0,27.2,29.70,SW,221,3.0,-999.0,20,-99.99,,,0.00,0.0,cwc,2013-04-02 03:00:00,
2013-04-01 21:05:00,55.0,26.6,29.70,SW,221,2.0,-999.0,21,-99.99,,,0.00,0.0,cwc,2013-04-02 03:05:00,
2013-04-01 21:10:00,54.1,25.7,29.70,SW,221,3.0,-999.0,21,-99.99,,,0.00,0.0,cwc,2013-04-02 03:10:00,
2013-04-01 21:15:00,53.9,25.1,29.71,SW,221,1.0,-999.0,20,-99.99,,,0.00,0.0,cwc,2013-04-02 03:15:00,
2013-04-01 21:20:00,53.9,25.5,29.71,SW,221,2.0,-999.0,21,-99.99,,,0.00,0.0,cwc,2013-04-02 03:20:00,
2013-04-01 21:25:00,53.6,25.2,29.71,SW,221,1.0,-999.0,21,-99.99,,,0.00,0.0,cwc,2013-04-02 03:25:00,
2013-04-01 21:30:00,53.7,24.9,29.71,SW,221,0.0,-999.0,20,-99.99,,,0.00,0.0,cwc,2013-04-02 03:30:00,
2013-04-01 21:35:00,53.6,25.2,29.72,SW,221,3.0,-999.0,21,-99.99,,,0.00,0.0,cwc,2013-04-02 03:35:00,
2013-04-01 21:40:00,53.7,24.9,29.72,SW,221,1.0,-999.0,20,-99.99,,,0.00,0.0,cwc,2013-04-02 03:40:00,
2013-04-01 21:45:00,54.2,25.4,29.72,SW,221,3.0,-999.0,20,-99.99,,,0.00,0.0,cwc,2013-04-02 03:45:00,
2013-04-01 21:55:00,54.8,25.6,29.73,SW,221,2.0,-999.0,19,-99.99,,,0.00,0.0,cwc,2013-04-02 03:55:00,
2013-04-01 22:00:00,54.6,25.8,29.73,SW,221,3.0,-999.0,20,-99.99,,,0.00,0.0,cwc,2013-04-02 04:00:00,
2013-04-01 22:05:00,54.4,25.6,29.73,SW,221,0.0,-999.0,20,-99.99,,,0.00,0.0,cwc,2013-04-02 04:05:00,
2013-04-01 22:10:00,55.2,26.4,29.72,SW,222,6.0,-999.0,20,-99.99,,,0.00,0.0,cwc,2013-04-02 04:10:00,
2013-04-01 22:15:00,56.0,27.2,29.72,SW,221,2.0,-999.0,20,-99.99,,,0.00,0.0,cwc,2013-04-02 04:15:00,
2013-04-01 22:20:00,55.9,26.7,29.73,West,268,2.0,-999.0,19,-99.99,,,0.00,0.0,cwc,2013-04-02 04:20:00,
2013-04-01 22:25:00,54.8,26.0,29.73,SW,222,3.0,-999.0,20,-99.99,,,0.00,0.0,cwc,2013-04-02 04:25:00,
2013-04-01 22:30:00,54.0,25.2,29.73,SW,219,2.0,-999.0,20,-99.99,,,0.00,0.0,cwc,2013-04-02 04:30:00,
2013-04-01 22:35:00,53.3,24.9,29.72,SW,220,4.0,-999.0,21,-99.99,,,0.00,0.0,cwc,2013-04-02 04:35:00,
2013-04-01 22:40:00,52.7,24.6,29.73,SW,220,3.0,-999.0,22,-99.99,,,0.00,0.0,cwc,2013-04-02 04:40:00,
2013-04-01 22:45:00,51.9,23.8,29.72,SW,220,1.0,-999.0,22,-99.99,,,0.00,0.0,cwc,2013-04-02 04:45:00,
2013-04-01 22:55:00,55.6,27.2,29.73,SW,232,4.0,-999.0,21,-99.99,,,0.00,0.0,cwc,2013-04-02 04:55:00,
2013-04-01 23:00:00,56.7,27.9,29.73,SW,227,4.0,-999.0,20,-99.99,,,0.00,0.0,cwc,2013-04-02 05:00:00,
2013-04-01 23:05:00,56.5,27.7,29.72,SW,226,0.0,-999.0,20,-99.99,,,0.00,0.0,cwc,2013-04-02 05:05:00,
2013-04-01 23:10:00,55.7,26.9,29.73,SW,227,0.0,-999.0,20,-99.99,,,0.00,0.0,cwc,2013-04-02 05:10:00,
2013-04-01 23:15:00,55.4,27.0,29.72,SSW,211,0.0,-999.0,21,-99.99,,,0.00,0.0,cwc,2013-04-02 05:15:00,
2013-04-01 23:20:00,55.1,26.7,29.73,SSW,211,3.0,-999.0,21,-99.99,,,0.00,0.0,cwc,2013-04-02 05:20:00,
2013-04-01 23:25:00,54.4,26.0,29.72,SSW,211,0.0,-999.0,21,-99.99,,,0.00,0.0,cwc,2013-04-02 05:25:00,
2013-04-01 23:30:00,53.9,25.5,29.72,SSW,211,0.0,-999.0,21,-99.99,,,0.00,0.0,cwc,2013-04-02 05:30:00,
2013-04-01 23:40:00,53.1,24.7,29.73,West,278,6.0,-999.0,21,-99.99,,,0.00,0.0,cwc,2013-04-02 05:40:00,
2013-04-01 23:45:00,52.7,24.6,29.73,NW,306,2.0,-999.0,22,-99.99,,,0.00,0.0,cwc,2013-04-02 05:45:00,
2013-04-01 23:50:00,52.3,24.2,29.73,NW,306,3.0,-999.0,22,-99.99,,,0.00,0.0,cwc,2013-04-02 05:50:00,
2013-04-01 23:55:00,52.0,23.9,29.73,NW,306,3.0,-999.0,22,-99.99,,,0.00,0.0,cwc,2013-04-02 05:55:00,